Regional Weather Roundup
Issued by NWS

Home | Current Version | Previous Version | Text Only | Print | Product List | Glossary Off
Versions: 1 2 3 4 5 6 7 8 9 10 11 12 13 14 15 16 17 18 19 20 21 22 23 24 25 26 27 28 29 30 31 32 33 34 35 36 37 38 39 40 41 42 43 44 45 46 47 48 49 50

000
ASUS43 KDTX 101701
RWRMI
MICHIGAN HOURLY REGIONAL WEATHER ROUNDUP
NATIONAL WEATHER SERVICE DETROIT/PONTIAC MI
1200 PM EST SAT DEC 10 2016

NOTE: "FAIR" INDICATES FEW OR NO CLOUDS BELOW 12,000 FEET WITH NO
SIGNIFICANT WEATHER AND/OR OBSTRUCTION TO VISIBILITY.

MIZ047>049-052>055-059>063-066>070-074>076-081>083-101800-
SOUTHEAST LOWER MICHIGAN

CITY           SKY/WX    TMP DP  RH WIND       PRES   REMARKS
ADRIAN         SUNNY     26  13  57 W15G23    30.46F WCI  14
ALMA           CLOUDY    25  15  66 SW12      30.40F WCI  15
ANN ARBOR      PTSUNNY   25  17  72 SW14G21   30.43F WCI  13
BAD AXE        PTSUNNY   25  14  62 W14       30.37F WCI  14
CARO           CLOUDY    24  14  65 SW8       30.39F WCI  16
DETROIT CITY   PTSUNNY   26  17  68 W13       30.43F WCI  15
DETROIT        PTSUNNY   28  18  66 W15       30.45F WCI  16
FLINT          LGT SNOW  24  18  77 W8        30.40F WCI  15
GROSSE ILE     PTSUNNY   29  18  65 W15       30.44F WCI  17
HILLSDALE      FLURRIES  23  14  68 SW13      30.42F WCI  11
HOWELL         LGT SNOW  25  19  80 W12       30.40F WCI  14

CITY           SKY/WX    TMP DP  RH WIND       PRES   REMARKS
JACKSON        LGT SNOW  23  17  78 SW17      30.42F WCI   9
LAMBERTVILLE   SUNNY     30  16  56 W10       30.47F WCI  21
LANSING        LGT SNOW  24  19  81 W8        30.42F VSB 3/4 WCI  15
LAPEER         NOT AVBL
MASON          LGT SNOW  24  20  85 SW8       30.41F WCI  15
MONROE         SUNNY     29  17  62 W14G22    30.45F WCI  18
MT. CLEMENS    PTSUNNY   28  15  59 SW10      30.40F WCI  18
PONTIAC        FLURRIES  25  17  72 SW13      30.38F WCI  14
PORT HOPE        N/A     26  12  55 W12       30.34F WCI  16
PORT HURON     CLOUDY    27  14  59 W6        30.41F WCI  20
TRI CITIES     CLOUDY    25  17  72 W13       30.40F WCI  14
MIDLAND        FLURRIES  26  14  61 W8        30.39F WCI  18
TROY           CLOUDY    27  15  61 SW8       30.43F WCI  19
SAGINAW HB     FLURRIES  27  18  69 W9        30.40F WCI  17
$$
MIZ043>046-050>051-056>058-064>065-071>073-077>080-101800-
SOUTHWEST LOWER MICHIGAN

CITY           SKY/WX    TMP DP  RH WIND       PRES   REMARKS
BATTLE CREEK   LGT SNOW  22  18  85 SW16      30.43F FOG     WCI   8
BENTON HARBOR  LGT SNOW  25  17  72 W13       30.47F WCI  14
BIG RAPIDS     PTSUNNY   21  12  67 W9        30.37F WCI  11
COLDWATER      CLOUDY    23  17  78 SW13G18   30.45F WCI  12
FREMONT        LGT SNOW  22  14  71 W13G18    30.42F WCI  10
HOLLAND        LGT SNOW  25  19  78 W12G18    30.44F WCI  14
GRAND RAPIDS   SNOW      24  19  81 NW9       30.42F VSB 1/2 WCI  14
KALAMAZOO      SNOW      22  17  81 SW12      30.44F VSB 1/2 WCI  10
LUDINGTON      CLOUDY    22  11  62 W8        30.41F WCI  13
MARSHALL       LGT SNOW  22  17  82 SW14      30.43F WCI   9
MOUNT PLEASANT CLOUDY    25  12  57 W10G18    30.38F WCI  15
MUSKEGON       CLOUDY    24  14  65 W13       30.44F WCI  12
SOUTH HAVEN    FLURRIES  26  19  74 W9G17     30.45F WCI  16
$$
MIZ016>042-101800-
NORTHERN LOWER MICHIGAN

CITY           SKY/WX    TMP DP  RH WIND       PRES   REMARKS
ALPENA         PTSUNNY   23  14  68 SW8       30.33F WCI  14
BEAVER ISLAND  CLOUDY    21  14  74 W15       30.32F WCI   8
BELLAIRE       CLOUDY    22  14  71 W8        30.36F WCI  12
CADILLAC       FLURRIES  20  13  72 W8        30.31F WCI  11
CHARLEVOIX     LGT SNOW  21  15  78 W14       30.36F WCI   8
FRANKFORT      FLURRIES  21  13  72 W13       30.39F WCI   9
GAYLORD        LGT SNOW  19  13  77 W9        30.28F WCI   8
GRAYLING       LGT SNOW  22  15  76 SW6       30.31F WCI  14
HARBOR SPRINGS LGT SNOW  20  16  84 W12G17    30.32F VSB 1   WCI   8
HOUGHTON LAKE  MOSUNNY   20  10  65 W14       30.33F WCI   7
MANISTEE       FLURRIES  23  14  68 W13       30.39F WCI  11
OSCODA         SUNNY     28  11  50 MISG      30.33F
PELLSTON       SNOW      20  14  77 W7        30.32F VSB 1/2 WCI  11
ROGERS CITY    PTSUNNY   23  15  69 W9        30.33F WCI  13
TRAVERSE CITY  LGT SNOW  20  13  74 W12       30.36F WCI   8
$$
MIZ007>008-015-101800-
EASTERN UPPER MICHIGAN

CITY           SKY/WX    TMP DP  RH WIND       PRES   REMARKS
KINROSS        SUNNY     21  12  68 W7        30.29F WCI  12
MACKINAC ISLAN CLOUDY    21  13  70 SW10G21   30.30S WCI  10
NEWBERRY       MOSUNNY   16  10  78 SW12      30.26F WCI   2
S. S. MARIE    MOSUNNY   17  12  80 SW3       30.29F
MUNISING         N/A     20  11  68 W13G23    30.30F WCI   7
$$
MIZ004>006-011>014-085-101800-
CENTRAL UPPER MICHIGAN

CITY           SKY/WX    TMP DP  RH WIND       PRES   REMARKS
MANISTIQUE     SUNNY     17   8  68 W14       30.31F WCI   3
ESCANABA       SUNNY     18   5  57 W15       30.37F WCI   4
MENOMINEE      SUNNY     17   2  51 VRB7      30.42F WCI   8
SAWYER-GWINN   SUNNY     14   5  67 NW14G22   30.31F WCI  -1
$$
MIZ001>003-009>011-084-101800-
WESTERN UPPER MICHIGAN

CITY           SKY/WX    TMP DP  RH WIND       PRES   REMARKS
IRON MOUNTAIN  SUNNY     14   0  53 W10       30.34F WCI   1
HOUGHTON       CLOUDY    14   4  64 NW13      30.32F WCI   0
COPPER HARBOR    N/A     18   8  65 NW8       30.34F WCI   8
IRONWOOD       CLOUDY     7   0  73 SW12      30.40F HAZE    WCI  -8
$$

ABBREVIATIONS USED IN REMARKS
   TC - TEMPERATURE IN CELSIUS
  WCI - WIND CHILL INDEX
   HX - HEAT INDEX
  VSB - VISIBILITY





USA.gov is the U.S. government's official web portal to all federal, state and local government web resources and services.